F1ZRP-13 Weather Reports


Display with metric or nautical units.
time (UTC)temp
F
wind
direction
speed
MPH
gust
MPH
rain 1hr
in
rain 24hr
in
rain mn
in
humidity
%
barometer
mb
20260507114523 60 0.0 0.0 0.00 0.00 0.00 62 1016.7
20260507113200 58 0.0 0.0 0.00 0.00 0.00 65 1016.6
20260507111514 57 0.0 0.0 0.00 0.00 0.00 65 1016.6
20260507110047 57 0.0 0.0 0.00 0.00 0.00 65 1016.6
20260507104700 57 0.0 0.0 0.00 0.00 0.00 66 1016.6
20260507103432 57 0.0 0.0 0.00 0.00 0.00 68 1016.7
20260507102156 56 0.0 0.0 0.00 0.00 0.00 69 1016.7
20260507100736 57 0.0 0.0 0.00 0.00 0.00 68 1016.6
20260507095341 56 0.0 0.0 0.00 0.00 0.00 72 1016.5
20260507093554 56 0.0 0.0 0.00 0.00 0.00 72 1016.4
20260507091717 56 0.0 0.0 0.00 0.00 0.00 71 1016.2
20260507090155 56 0.0 0.0 0.00 0.00 0.00 71 1016.1
20260507084528 55 0.0 0.0 0.00 0.00 0.00 73 1016.0
20260507083430 54 0.0 0.0 0.00 0.00 0.00 76 1016.0
20260507081700 53 0.0 0.0 0.00 0.00 0.00 77 1015.9
20260507075956 54 0.0 0.0 0.00 0.00 0.00 77 1015.8
20260507073924 52 0.0 0.0 0.00 0.00 0.00 81 1015.8
20260507072013 50 0.0 0.0 0.00 0.00 0.00 83 1015.5
20260507070650 51 0.0 0.0 0.00 0.00 0.00 83 1015.4
20260507065022 50 0.0 0.0 0.00 0.00 0.00 86 1015.3
20260507063552 49 0.0 0.0 0.00 0.00 0.00 87 1015.3
20260507061628 49 0.0 0.0 0.00 0.00 0.00 88 1015.2
20260507060103 48 0.0 0.0 0.00 0.00 0.00 88 1015.1
20260507054445 48 0.0 0.0 0.00 0.00 0.00 88 1015.0
20260507052954 47 0.0 0.0 0.00 0.00 0.00 89 1014.8
20260507051831 47 0.0 0.0 0.00 0.00 0.00 89 1014.8
20260507050246 46 0.0 0.0 0.00 0.00 0.00 89 1014.6
20260507045048 46 0.0 0.0 0.00 0.00 0.00 90 1014.5
20260507043347 46 0.0 0.0 0.00 0.00 0.00 91 1014.3
20260507041919 45 0.0 0.0 0.00 0.00 0.00 91 1014.1
20260507040403 46 0.0 0.0 0.00 0.00 0.00 91 1014.0
20260507034606 46 0.0 0.0 0.00 0.00 0.00 90 1014.0
20260507033234 46 0.0 0.0 0.00 0.00 0.00 90 1013.9
20260507031524 46 0.0 0.0 0.00 0.00 0.00 90 1013.8
20260507025724 46 0.0 0.0 0.00 0.00 0.00 90 1013.6
20260507024007 46 0.0 0.0 0.00 0.00 0.00 90 1013.7
20260507022344 46 0.0 0.0 0.00 0.00 0.00 90 1013.6
20260507020520 47 0.0 0.0 0.00 0.00 0.00 89 1013.5
20260507014945 47 0.0 0.0 0.00 0.00 0.00 89 1013.3
20260507013249 48 0.0 0.0 0.00 0.00 0.00 87 1013.3
20260507012049 48 0.0 0.0 0.00 0.00 0.00 86 1013.3
20260507011029 48 0.0 0.0 0.00 0.00 0.00 85 1013.2
20260507005322 49 0.0 0.0 0.00 0.00 0.00 85 1013.2
20260507003712 49 0.0 0.0 0.00 0.00 0.00 86 1013.1
20260507002039 49 0.0 0.0 0.00 0.00 0.00 87 1013.0
20260507000831 49 0.0 0.0 0.00 0.00 0.00 86 1012.9
20260506235500 49 0.0 0.0 0.00 0.00 0.00 87 1012.9
20260506234012 50 0.0 0.0 0.00 0.00 0.00 87 1012.9
20260506232157 50 0.0 0.0 0.00 0.00 0.00 87 1012.8
20260506230834 50 0.0 0.0 0.00 0.00 0.00 87 1012.7
20260506224920 50 0.0 0.0 0.00 0.00 0.00 87 1012.6
20260506223008 50 0.0 0.0 0.00 0.00 0.00 85 1012.6
20260506221734 50 0.0 0.0 0.00 0.00 0.00 85 1012.4
20260506220228 50 0.0 0.0 0.00 0.00 0.00 85 1012.3
20260506214448 51 0.0 0.0 0.00 0.00 0.00 86 1012.1
20260506213240 51 0.0 0.0 0.00 0.00 0.00 86 1012.1
20260506211715 51 0.0 0.0 0.00 0.00 0.00 86 1011.9
20260506210003 51 0.0 0.0 0.00 0.00 0.00 82 1011.8
20260506204224 51 0.0 0.0 0.00 0.00 0.00 81 1011.7
20260506202932 51 0.0 0.0 0.00 0.00 0.00 81 1011.6
20260506201149 52 0.0 0.0 0.00 0.00 0.00 80 1011.6
20260506195636 52 0.0 0.0 0.00 0.00 0.00 81 1011.4
20260506193623 52 0.0 0.0 0.00 0.00 0.00 81 1011.1
20260506192004 52 0.0 0.0 0.00 0.00 0.00 83 1010.9
20260506190642 52 0.0 0.0 0.00 0.00 0.00 82 1010.7
20260506185136 53 0.0 0.0 0.00 0.00 0.00 81 1010.7
20260506183407 53 0.0 0.0 0.00 0.00 0.00 80 1010.5
20260506181717 53 0.0 0.0 0.00 0.00 0.00 80 1010.3
20260506180230 54 0.0 0.0 0.00 0.00 0.00 81 1010.1
20260506174859 54 0.0 0.0 0.00 0.00 0.00 80 1009.9
20260506173204 55 0.0 0.0 0.00 0.00 0.00 77 1009.7
20260506171702 56 0.0 0.0 0.00 0.00 0.00 77 1009.5
20260506170342 56 0.0 0.0 0.00 0.00 0.00 77 1009.5
20260506164803 57 0.0 0.0 0.00 0.00 0.00 78 1009.4
20260506162917 55 0.0 0.0 0.00 0.00 0.00 82 1009.4
20260506161510 55 0.0 0.0 0.00 0.00 0.00 83 1009.4
20260506160238 54 0.0 0.0 0.00 0.00 0.00 84 1009.4
20260506154945 55 0.0 0.0 0.00 0.00 0.00 84 1009.4
20260506142640 55 0.0 0.0 0.00 0.00 0.00 90 1008.9
20260506141121 54 0.0 0.0 0.00 0.00 0.00 91 1008.9
20260506135837 55 0.0 0.0 0.00 0.00 0.00 91 1008.7
20260506134545 55 0.0 0.0 0.00 0.00 0.00 91 1008.7
20260506132852 54 0.0 0.0 0.00 0.00 0.00 93 1008.9
20260506131633 53 0.0 0.0 0.00 0.00 0.00 93 1009.0
20260506130056 53 0.0 0.0 0.00 0.00 0.00 93 1008.9
20260506124728 53 0.0 0.0 0.00 0.00 0.00 94 1008.7
20260506123328 53 0.0 0.0 0.00 0.00 0.00 94 1008.6
20260506121831 54 0.0 0.0 0.00 0.00 0.00 94 1008.5
20260506120323 53 0.0 0.0 0.00 0.00 0.00 94 1008.4
20260506115215 53 0.0 0.0 0.00 0.00 0.00 94 1008.2